Location: ???????
(55.7027°N, 37.3832°E)
Time: 10:46:56
(UTC+00:00)

Cosmos 968 Rocket - Pass Details

Date: 14 April 2026
Orbit: 735 x 766 km, 74.0° (Epoch: 19 May)

Event Time Altitude Azimuth Distance (km) Brightness Sun altitude
Rises 21:12:00 0° 332° (NNW) 3,213 7.8 -24.5°
Reaches altitude 10° 21:14:27 10° 338° (NNW) 2,290 6.9 -24.6°
Maximum altitude 21:19:29 48° 53° (NE) 988 4.2 -24.6°
Enters shadow 21:21:11 35° 102° (ESE) 1,214 4.4 -24.6°
